When you browse on this site, cookies collect data to enhance your experience and personalize the content and advertising you see.
Visit our Privacy Policy to learn more. By continuing to use the site, you agree to this use of cookies and data.
  • în România
  • Lista ţărilor
  • Pe 7 zile
  • Temperatura apei
  • Hartă satelitară
  • Meteo pe hartă
  • Widget-uri
  • user-avatar
    Intrare

    Meteo pe oră la Rogovo

    Astăzi, 18 Februarie, Luni

    Timp Temperatura Precipitaţii Vânt Presiune Umiditate
    00:00 -6°C° 0 mm 5 m/s 740 mmHg 79%
    01:00 -5°C° 0 mm 4 m/s 741 mmHg 81%
    02:00 -6°C° 0 mm 3 m/s 741 mmHg 88%
    03:00 -7°C° 0 mm 3 m/s 742 mmHg 89%
    04:00 -7°C° 0 mm 3 m/s 742 mmHg 89%
    05:00 -7°C° 0 mm 3 m/s 743 mmHg 90%
    06:00 -7°C° 0 mm 3 m/s 743 mmHg 89%
    07:00 -7°C° 0 mm 3 m/s 744 mmHg 88%
    08:00 -7°C° 0 mm 3 m/s 744 mmHg 86%
    09:00 -6°C° 0 mm 3 m/s 745 mmHg 84%
    10:00 -6°C° 0 mm 3 m/s 745 mmHg 82%
    11:00 -6°C° 0 mm 3 m/s 745 mmHg 79%
    12:00 -4°C° 0 mm 2 m/s 746 mmHg 76%
    13:00 -3°C° 0 mm 2 m/s 746 mmHg 73%
    14:00 -3°C° 0 mm 2 m/s 746 mmHg 70%
    15:00 -4°C° 0 mm 2 m/s 746 mmHg 75%
    16:00 -3°C° 0 mm 1 m/s 746 mmHg 80%
    17:00 -4°C° 0 mm 1 m/s 746 mmHg 85%
    18:00 -4°C° 0 mm 1 m/s 746 mmHg 86%
    19:00 -6°C° 0 mm 1 m/s 746 mmHg 87%
    20:00 -6°C° 0 mm 1 m/s 746 mmHg 89%
    21:00 -7°C° 0 mm 2 m/s 746 mmHg 88%
    22:00 -7°C° 0 mm 2 m/s 745 mmHg 88%
    23:00 -8°C° 0 mm 3 m/s 745 mmHg 87%

    Mâine, 19 Februarie, Marţi

    Timp Temperatura Precipitaţii Vânt Presiune Umiditate
    00:00 -8°C° 0 mm 3 m/s 745 mmHg 86%
    01:00 -7°C° 0 mm 3 m/s 744 mmHg 85%
    02:00 -8°C° 0 mm 4 m/s 744 mmHg 84%
    03:00 -8°C° 0 mm 4 m/s 743 mmHg 81%
    04:00 -8°C° 0 mm 4 m/s 743 mmHg 79%
    05:00 -8°C° 0 mm 5 m/s 742 mmHg 76%
    06:00 -7°C° 0 mm 5 m/s 741 mmHg 76%
    07:00 -7°C° 0 mm 5 m/s 741 mmHg 76%
    08:00 -7°C° 0 mm 5 m/s 740 mmHg 76%
    09:00 -6°C° 0 mm 5 m/s 740 mmHg 77%
    10:00 -4°C° 0 mm 5 m/s 740 mmHg 77%
    11:00 -2°C° 0 mm 5 m/s 739 mmHg 77%
    12:00 -2°C° 0 mm 5 m/s 739 mmHg 78%
    13:00 -1°C° 0 mm 5 m/s 738 mmHg 79%
    14:00 0°C° 0 mm 5 m/s 737 mmHg 79%
    15:00 -1°C° 0 mm 5 m/s 737 mmHg 82%
    16:00 -1°C° 0 mm 5 m/s 736 mmHg 84%
    17:00 -2°C° 0 mm 5 m/s 735 mmHg 87%
    18:00 -2°C° 0 mm 5 m/s 735 mmHg 87%
    19:00 -2°C° 0 mm 5 m/s 734 mmHg 88%
    20:00 -3°C° 0 mm 6 m/s 734 mmHg 89%
    21:00 -2°C° 0 mm 6 m/s 733 mmHg 89%
    22:00 -1°C° 0 mm 5 m/s 732 mmHg 90%
    23:00 -1°C° 0 mm 5 m/s 732 mmHg 90%

    Poimâine, 20 Februarie, Miercuri

    Timp Temperatura Precipitaţii Vânt Presiune Umiditate
    00:00 -1°C° 0.1 mm 5 m/s 731 mmHg 90%
    01:00 -1°C° 0.1 mm 5 m/s 731 mmHg 90%
    02:00 0°C° 0.1 mm 5 m/s 730 mmHg 90%
    03:00 0°C° 0.3 mm 5 m/s 730 mmHg 91%
    04:00 0°C° 0.3 mm 5 m/s 730 mmHg 91%
    05:00 0°C° 0.3 mm 5 m/s 729 mmHg 91%
    06:00 0°C° 0.1 mm 5 m/s 729 mmHg 92%
    07:00 0°C° 0.1 mm 4 m/s 729 mmHg 93%
    08:00 0°C° 0.1 mm 4 m/s 729 mmHg 94%
    09:00 0°C° 0.1 mm 4 m/s 729 mmHg 92%
    10:00 0°C° 0.1 mm 5 m/s 729 mmHg 91%
    11:00 0°C° 0.1 mm 5 m/s 729 mmHg 89%
    12:00 0°C° 0.1 mm 5 m/s 729 mmHg 87%
    13:00 0°C° 0.1 mm 5 m/s 729 mmHg 85%
    14:00 0°C° 0.1 mm 5 m/s 729 mmHg 82%
    15:00 0°C° 0.1 mm 5 m/s 729 mmHg 84%
    16:00 0°C° 0.1 mm 5 m/s 729 mmHg 85%
    17:00 0°C° 0.1 mm 5 m/s 729 mmHg 86%
    18:00 -1°C° 0.3 mm 5 m/s 729 mmHg 86%
    19:00 -1°C° 0.3 mm 5 m/s 728 mmHg 87%
    20:00 -1°C° 0.3 mm 5 m/s 728 mmHg 87%
    21:00 -1°C° 0.2 mm 5 m/s 728 mmHg 85%
    22:00 -2°C° 0.2 mm 5 m/s 729 mmHg 83%
    23:00 -4°C° 0.2 mm 5 m/s 729 mmHg 80%

    21 Februarie, Joi

    Timp Temperatura Precipitaţii Vânt Presiune Umiditate
    00:00 -4°C° 0.2 mm 5 m/s 729 mmHg 82%
    01:00 -4°C° 0.2 mm 6 m/s 730 mmHg 83%
    02:00 -5°C° 0.2 mm 6 m/s 730 mmHg 85%
    03:00 -5°C° 0.1 mm 6 m/s 730 mmHg 83%
    04:00 -5°C° 0.1 mm 6 m/s 731 mmHg 81%
    05:00 -6°C° 0.1 mm 6 m/s 731 mmHg 79%
    06:00 -6°C° 0.1 mm 6 m/s 732 mmHg 77%
    07:00 -8°C° 0.1 mm 6 m/s 733 mmHg 76%
    08:00 -8°C° 0.1 mm 6 m/s 733 mmHg 74%
    09:00 -8°C° 0.1 mm 6 m/s 734 mmHg 72%
    10:00 -9°C° 0.1 mm 6 m/s 735 mmHg 70%
    11:00 -9°C° 0.1 mm 6 m/s 735 mmHg 68%
    12:00 -9°C° 0.1 mm 6 m/s 736 mmHg 68%
    13:00 -9°C° 0.1 mm 6 m/s 737 mmHg 68%
    14:00 -9°C° 0.1 mm 6 m/s 738 mmHg 68%
    15:00 -10°C° 0 mm 6 m/s 738 mmHg 68%
    16:00 -10°C° 0 mm 6 m/s 739 mmHg 69%
    17:00 -11°C° 0 mm 5 m/s 740 mmHg 70%
    18:00 -11°C° 0 mm 5 m/s 741 mmHg 70%
    19:00 -11°C° 0 mm 5 m/s 742 mmHg 71%
    20:00 -12°C° 0 mm 5 m/s 742 mmHg 72%
    21:00 -12°C° 0 mm 5 m/s 743 mmHg 73%
    22:00 -13°C° 0 mm 5 m/s 744 mmHg 73%
    23:00 -13°C° 0 mm 5 m/s 745 mmHg 74%

    22 Februarie, Vineri

    Timp Temperatura Precipitaţii Vânt Presiune Umiditate
    00:00 -12°C° 0 mm 4 m/s 746 mmHg 75%
    01:00 -14°C° 0 mm 4 m/s 746 mmHg 76%
    02:00 -14°C° 0 mm 4 m/s 747 mmHg 76%
    03:00 -14°C° 0 mm 4 m/s 748 mmHg 78%
    04:00 -14°C° 0 mm 4 m/s 748 mmHg 80%
    05:00 -14°C° 0 mm 4 m/s 749 mmHg 81%
    06:00 -12°C° 0 mm 4 m/s 750 mmHg 81%
    07:00 -12°C° 0 mm 4 m/s 750 mmHg 80%
    08:00 -13°C° 0 mm 5 m/s 751 mmHg 80%
    09:00 -12°C° 0 mm 5 m/s 751 mmHg 76%
    10:00 -11°C° 0 mm 5 m/s 752 mmHg 73%
    11:00 -9°C° 0 mm 4 m/s 752 mmHg 70%
    12:00 -10°C° 0 mm 5 m/s 752 mmHg 65%
    13:00 -8°C° 0 mm 5 m/s 752 mmHg 61%
    14:00 -8°C° 0 mm 5 m/s 753 mmHg 57%
    15:00 -8°C° 0 mm 5 m/s 753 mmHg 59%
    16:00 -9°C° 0 mm 4 m/s 753 mmHg 60%
    17:00 -10°C° 0 mm 4 m/s 754 mmHg 62%
    18:00 -10°C° 0 mm 4 m/s 754 mmHg 66%
    19:00 -10°C° 0 mm 3 m/s 755 mmHg 70%
    20:00 -10°C° 0 mm 3 m/s 755 mmHg 73%
    21:00 -12°C° 0 mm 3 m/s 755 mmHg 78%
    22:00 -10°C° 0 mm 2 m/s 755 mmHg 83%
    23:00 -9°C° 0 mm 1 m/s 755 mmHg 87%

    23 Februarie, Sâmbătă

    Timp Temperatura Precipitaţii Vânt Presiune Umiditate
    00:00 -10°C° 0 mm 1 m/s 755 mmHg 89%
    01:00 -10°C° 0 mm 1 m/s 755 mmHg 90%
    02:00 -10°C° 0 mm 1 m/s 755 mmHg 91%
    03:00 -10°C° 0 mm 1 m/s 754 mmHg 90%
    04:00 -10°C° 0 mm 1 m/s 754 mmHg 90%
    05:00 -10°C° 0 mm 1 m/s 753 mmHg 89%
    06:00 -9°C° 0 mm 1 m/s 753 mmHg 86%
    07:00 -10°C° 0 mm 2 m/s 752 mmHg 83%
    08:00 -9°C° 0 mm 2 m/s 751 mmHg 79%
    09:00 -9°C° 0.2 mm 2 m/s 751 mmHg 82%
    10:00 -8°C° 0.2 mm 2 m/s 750 mmHg 84%
    11:00 -9°C° 0.2 mm 3 m/s 749 mmHg 87%
    12:00 -8°C° 0.3 mm 3 m/s 748 mmHg 87%
    13:00 -8°C° 0.3 mm 3 m/s 747 mmHg 87%
    14:00 -7°C° 0.3 mm 3 m/s 747 mmHg 87%
    15:00 -7°C° 0.1 mm 3 m/s 746 mmHg 88%
    16:00 -7°C° 0.1 mm 3 m/s 746 mmHg 89%
    17:00 -7°C° 0.1 mm 3 m/s 746 mmHg 90%
    18:00 -7°C° 0 mm 3 m/s 746 mmHg 91%
    19:00 -6°C° 0 mm 2 m/s 746 mmHg 92%
    20:00 -6°C° 0 mm 2 m/s 746 mmHg 93%
    21:00 -6°C° 0 mm 2 m/s 746 mmHg 93%
    22:00 -6°C° 0 mm 2 m/s 746 mmHg 94%
    23:00 -6°C° 0 mm 2 m/s 746 mmHg 94%
    Arată mai mult